sat.trackr.live / text

‹ back to catalog

HORUS 1

NORAD 55690 · 2023-025A

PAYLOAD ACTIVE UNKNOWN

§ Identity

Operator
Country
EGYP
Launch date
2023-02-24
Launch site
JSC
Launch vehicle
Mass (kg)
RCS (m²)

External: N2YO · Heavens-Above · Gunter

§ Orbital elements

Epoch: 2026-09-21T23:19:05.443392Z

Period
94.52 min
Inclination
97.3386°
Eccentricity
0.0002049
Mean motion
15.23486455 rev/d
Perigee alt
493.9 km
Apogee alt
496.7 km
Semi-major
6,873.5 km
B*
1.3818e-4
RAAN
337.4862°
Arg perigee
121.7332°
Mean anomaly
238.4105°
Rev number
19,878

§ Raw data

HORUS 11 55690U 23025A   26264.97159078  .00003226  00000+0  13818-3 0  99992 55690  97.3386 337.4862 0002049 121.7332 238.4105 15.23486455198789

JSON: /api/v1/satellites/55690 · /tle

For live sub-satellite position, see the globe view (requires WebGL).

§ Visibility from observer

Set your observer location to see the next 7 days of passes ≥ 10°. The values pass through the URL so the page stays shareable.

No JS? Fill the form by hand. The geolocation button needs JavaScript.

§ Radio — SatNOGS DB

ModeDescriptionDownlinkUplink
FM S-band telemetry 2.207 GHz

1 transmitter · refreshed weekly from db.satnogs.org